This demonstration page uses our WeatherBlox Daily Observations layout. Learn more.

Left ArrowRight Arrow

Hourly Observations for April 2, 2019

Temp ( °F °C ) Dew Point ( °F °C ) Humidity (%) Winds ( mph kmh ) Pressure ( in mb ) Visibility ( mi km ) Precip ( " mm )
12:53 am 00:53 Clear 52 11.1 23 -5 32 32 E 6 9 30.17 1022 10 16 0.00 0.00
1:53 am 01:53 Mostly Cloudy 51 10.6 24 -4.4 35 35 ENE 6 9 30.16 1021 10 16 0.00 0.00
2:53 am 02:53 Mostly Cloudy 51 10.6 24 -4.4 35 35 ENE 7 11 30.13 1020 10 16 0.00 0.00
3:53 am 03:53 Cloudy 50 10 25 -3.9 38 38 E 7 11 30.11 1020 10 16 0.00 0.00
4:53 am 04:53 Cloudy 49 9.4 26 -3.3 41 41 ENE 6 9 30.11 1020 10 16 0.00 0.00
5:53 am 05:53 Cloudy 49 9.4 26 -3.3 41 41 ENE 9 15 30.11 1020 10 16 0.00 0.00
6:53 am 06:53 Cloudy 47 8.3 28 -2.2 48 48 ENE 9 15 30.13 1020 10 16 0.00 0.00
7:53 am 07:53 Cloudy 47 8.3 28 -2.2 48 48 NNE 6 9 30.16 1021 10 16 0.00 0.00
8:53 am 08:53 Cloudy 47 8.3 28 -2.2 48 48 NE 9 15 30.17 1022 10 16 0.00 0.00
9:53 am 09:53 Cloudy 48 8.9 27 -2.8 44 44 E 8 13 30.18 1022 10 16 0.00 0.00
10:53 am 10:53 Cloudy 50 10 28 -2.2 43 43 E 10 17 30.16 1021 10 16 0.00 0.00
11:53 am 11:53 Mostly Cloudy 53 11.7 28 -2.2 38 38 NE 7 11 30.16 1021 10 16 0.00 0.00
12:53 pm 12:53 Sunny 57 13.9 30 -1.1 36 36 NNE 7 11 30.14 1021 10 16 0.00 0.00
1:53 pm 13:53 Sunny 58 14.4 31 -0.6 36 36 VRB 3 6 30.13 1020 10 16 0.00 0.00
2:53 pm 14:53 Mostly Sunny 60 15.6 33 0.6 36 36 NNW 8 13 30.11 1020 10 16 0.00 0.00
3:53 pm 15:53 Mostly Cloudy 63 17.2 35 1.7 35 35 WNW 10 17 30.09 1019 10 16 0.00 0.00
4:53 pm 16:53 Mostly Sunny 61 16.1 34 1.1 36 36 NW 10 17 30.09 1019 10 16 0.00 0.00
5:53 pm 17:53 Partly Cloudy 61 16.1 34 1.1 36 36 WNW 10 17 30.10 1019 10 16 0.00 0.00
6:53 pm 18:53 Sunny 60 15.6 35 1.7 39 39 NW 9 15 30.10 1019 10 16 0.00 0.00
7:53 pm 19:53 Sunny 57 13.9 35 1.7 44 44 NW 6 9 30.13 1020 10 16 0.00 0.00
8:53 pm 20:53 Clear 54 12.2 37 2.8 53 53 Calm 30.14 1021 10 16 0.00 0.00
9:53 pm 21:53 Clear 49 9.4 39 3.9 69 69 Calm 30.17 1022 10 16 0.00 0.00
10:53 pm 22:53 Clear 47 8.3 40 4.4 77 77 Calm 30.19 1023 10 16 0.00 0.00
11:53 pm 23:53 Clear 45 7.2 41 5 86 86 Calm 30.20 1023 10 16 0.00 0.00

Powered by AerisWeather